Temperature
21 18 17 17 17 16 16 16 16 16 16 16 16 15 15 15 15 15 15 15 15 14 14 14 14 14 14 14 14 14 14 15 15 15 15 15 15 15 15 15 14 13 13
22 19 17 17 17 17 16 16 16 16 16 16 16 15 15 15 15 15 15 15 14 14 14 14 14 14 13 14 14 14 14 14 14 14 14 15 15 15 14 14 13 13 12
21 20 18 18 17 17 16 16 16 16 16 16 15 15 15 16 15 15 15 14 14 14 14 14 14 14 14 14 14 14 14 14 14 14 14 14 14 14 14 14 13 13 12
21 20 19 18 17 17 17 17 16 16 16 16 16 15 15 16 16 15 14 14 14 14 14 14 14 14 14 14 14 14 14 14 13 13 14 14 14 13 13 13 13 13 13
21 20 20 19 18 17 17 17 17 16 16 16 15 15 15 16 16 15 15 14 14 14 14 14 14 14 14 14 14 14 14 13 13 13 13 13 13 13 13 13 13 13 13
20 20 20 19 18 18 18 18 18 17 17 16 16 15 16 16 16 16 15 15 14 14 14 14 14 14 14 14 14 14 13 13 13 13 13 13 13 13 13 13 13 13 13
20 19 19 19 19 18 18 18 18 18 17 16 16 16 16 16 16 16 15 15 15 14 14 14 14 14 14 14 14 13 13 13 13 13 13 13 13 13 13 13 13 13 13
19 19 18 18 19 18 18 19 18 18 17 17 16 16 16 16 16 16 15 15 15 14 14 14 14 14 14 14 13 13 13 13 12 12 12 12 12 13 13 13 12 12 12
18 18 18 19 19 18 18 18 18 18 17 17 16 16 16 16 16 16 15 15 15 14 14 14 13 13 13 13 13 13 13 12 12 12 12 12 12 12 12 12 12 12 12
18 18 18 18 19 19 19 18 18 18 17 17 16 16 16 16 15 15 15 15 15 14 14 13 13 13 13 13 13 13 12 12 12 12 12 12 12 12 12 12 11 11 11
17 17 18 18 18 18 19 18 18 18 17 17 16 16 16 15 15 15 15 14 14 14 13 13 13 13 13 13 13 13 12 12 12 12 12 11 11 11 11 11 11 11 10
18 17 17 18 18 18 18 18 18 18 17 17 17 16 16 15 15 14 14 14 14 13 13 13 13 13 13 13 13 12 12 12 12 12 11 11 10 10 10 10 10 10 10
18 18 18 17 17 17 18 18 18 18 18 17 17 16 16 15 15 14 14 14 13 13 13 13 13 13 12 12 12 12 12 12 12 11 11 10 10 10 10 9 9 9 9
18 18 18 18 17 17 17 17 17 17 18 18 17 16 16 15 15 14 14 14 14 13 13 13 12 12 12 12 12 12 12 12 12 11 11 10 10 9 9 9 9 9 9
17 18 18 17 17 17 17 17 16 17 17 17 17 17 16 15 15 14 14 14 13 13 13 13 12 12 12 12 12 12 12 12 11 11 10 10 9 9 9 9 8 8 8
17 18 18 17 17 17 17 17 17 16 16 16 17 17 16 16 15 14 14 13 13 13 13 12 12 12 12 12 12 12 12 12 11 11 10 10 9 9 9 8 8 8 8
17 17 17 17 17 17 17 17 16 16 16 16 16 16 16 16 15 14 14 13 13 13 12 12 12 12 12 12 12 12 12 11 11 10 10 9 9 9 8 8 8 8 8
17 17 17 17 17 17 17 17 17 17 16 16 16 16 16 15 15 14 14 13 13 12 12 12 12 12 11 11 12 12 12 11 11 10 10 9 9 8 8 8 8 8 8
17 17 17 17 17 18 17 17 17 17 17 16 16 16 15 15 15 14 14 13 13 12 12 12 12 11 11 11 11 11 11 11 11 10 10 9 8 8 8 8 7 7 7
17 17 17 17 17 17 17 17 17 17 17 16 16 16 16 15 15 15 14 13 12 12 12 11 11 11 11 11 11 11 11 11 11 10 10 9 8 8 8 7 7 7 7
17 17 17 17 17 17 17 17 17 17 17 17 17 17 16 16 15 15 14 13 13 12 12 11 11 11 11 11 11 11 11 11 11 10 10 9 9 8 8 7 7 7 7
16 16 16 17 17 17 17 17 17 17 17 17 17 17 17 16 16 15 14 14 13 12 12 11 11 11 11 11 11 11 11 10 11 10 10 9 9 8 8 7 7 7 6
15 16 16 16 16 16 16 16 16 16 16 16 16 16 16 16 16 15 15 15 14 13 12 12 11 11 11 11 11 11 11 11 11 11 10 10 9 8 8 7 7 6 6
15 15 16 16 16 16 16 16 16 16 15 16 16 16 16 16 16 16 15 15 15 14 13 12 12 12 11 11 11 11 11 11 11 10 10 9 9 8 7 7 6 6 5
14 15 15 15 16 16 16 16 16 15 16 16 16 16 15 16 16 16 15 15 15 14 14 13 12 12 11 11 11 11 11 10 10 10 10 9 9 8 7 6 6 5 5
13 14 14 15 15 15 15 15 15 15 15 15 15 15 15 15 15 15 15 15 15 15 14 14 13 12 11 11 11 11 10 10 10 10 9 9 8 7 7 6 5 5 4
Wind_Speed
6 10 18 17 16 15 15 16 17 18 17 17 16 14 13 11 9 8 6 6 7 9 11 13 15 15 14 13 13 13 13 13 12 12 12 11 10 9 9 9 7 6 7
9 14 19 18 17 16 16 16 17 17 17 16 15 13 12 10 9 8 7 7 9 10 13 14 15 14 13 13 13 13 12 11 10 9 9 8 7 8 8 7 5 5 6
12 15 19 18 17 17 16 17 17 17 16 15 14 13 11 10 9 9 9 10 11 13 14 15 14 13 12 12 12 12 11 10 8 7 6 5 5 6 6 5 4 5 5
13 15 17 18 17 17 16 17 17 17 16 15 14 12 11 10 10 10 10 11 13 14 15 14 13 12 12 11 11 10 9 8 7 6 5 4 4 3 5 4 4 4 3
11 14 17 19 18 17 16 16 17 17 16 15 14 12 11 11 11 10 11 11 12 13 13 12 11 11 10 10 9 9 8 8 8 7 4 3 3 3 5 5 4 3 3
8 13 17 19 17 16 16 16 16 17 16 15 14 12 12 11 11 11 11 11 11 11 10 10 10 9 8 8 7 7 7 8 8 7 4 3 4 3 8 8 7 8 8
9 12 16 18 17 16 16 16 17 17 17 16 14 13 12 11 11 11 10 10 9 9 9 9 8 7 7 6 7 7 7 8 9 7 4 4 4 9 12 14 16 16 17
10 10 14 17 16 16 15 16 16 17 17 16 15 14 13 12 12 11 11 10 9 8 8 7 7 6 6 6 6 6 7 8 9 7 5 5 8 13 16 18 18 19 19
9 9 11 14 15 15 15 15 16 17 17 17 16 14 13 12 12 11 11 9 8 7 7 6 6 6 6 6 6 6 8 10 10 7 6 7 12 14 16 16 16 17 17
8 7 8 11 13 13 13 14 15 16 17 17 16 15 14 13 12 11 10 9 8 7 6 6 7 7 8 7 8 9 11 11 10 9 8 10 12 13 13 14 14 14 14
11 8 6 8 10 12 12 13 14 16 16 16 15 14 13 12 10 10 9 8 7 6 6 6 7 9 9 9 9 10 11 11 10 8 8 11 12 12 12 12 12 12 12
15 12 9 8 8 11 11 12 12 13 14 14 13 13 12 11 10 9 10 8 7 6 6 7 9 9 9 9 9 10 10 10 9 8 8 12 11 11 11 11 11 11 11
13 14 12 10 9 9 8 9 10 11 12 12 13 13 12 10 8 8 8 7 6 6 6 8 9 8 8 8 9 9 9 10 9 8 9 11 10 10 10 10 10 10 10
11 13 13 12 9 9 9 8 8 8 9 10 13 14 12 8 7 7 8 8 7 7 7 7 7 8 8 8 9 9 9 9 9 9 9 11 10 9 9 9 9 8 8
12 13 13 13 12 10 8 7 8 8 9 11 13 14 14 9 6 7 7 8 8 8 8 7 8 8 7 7 7 8 8 8 9 10 10 11 11 9 8 8 7 8 8
13 14 13 14 14 12 11 9 7 10 12 13 13 15 16 13 10 7 6 7 8 10 10 9 9 7 6 6 6 6 7 7 8 9 9 10 10 9 8 7 7 7 7
12 13 14 15 15 15 14 11 10 11 13 12 13 16 17 15 13 10 7 6 9 11 11 10 8 7 5 5 4 5 5 6 7 8 8 9 9 8 7 7 6 7 7
9 11 14 14 16 17 16 13 10 12 13 12 15 16 18 18 17 13 8 7 12 13 11 6 5 5 4 4 4 3 3 5 5 6 6 7 7 7 6 6 5 5 5
10 10 12 14 15 18 18 14 12 11 12 13 15 15 18 20 19 15 9 9 13 10 7 7 4 4 4 4 4 3 2 2 4 5 5 6 6 5 4 4 4 3 3
10 10 11 12 14 14 14 12 11 11 11 11 12 15 18 19 20 17 10 11 13 8 7 7 6 3 4 5 4 3 2 1 3 4 5 5 5 5 4 3 3 2 2
8 9 11 11 12 11 10 12 13 14 13 12 13 16 18 19 20 16 10 10 10 11 11 10 6 5 3 4 4 2 1 1 2 2 4 4 5 5 5 4 3 1 1
8 8 9 11 11 12 11 12 10 11 10 13 11 12 17 18 19 17 14 13 12 10 11 11 7 5 4 5 5 3 2 2 2 1 2 3 4 5 5 5 4 2 1
7 8 7 9 10 11 11 8 5 6 5 7 9 12 13 17 18 17 15 14 14 14 14 14 12 10 6 4 3 5 5 6 3 1 1 2 3 3 4 5 4 2 2
7 6 6 7 8 9 9 9 11 12 13 13 12 13 13 15 17 18 16 15 16 14 14 15 13 8 8 6 3 1 2 4 4 3 2 1 2 3 3 3 4 4 4
7 6 5 6 7 7 8 10 11 14 13 10 10 12 13 14 15 16 16 15 16 15 15 14 13 10 7 8 6 4 3 2 2 4 4 3 1 2 2 2 4 5 5
8 8 7 6 7 6 7 8 11 14 13 11 11 12 12 10 12 15 14 15 15 13 14 14 14 14 9 8 7 5 5 4 4 4 3 3 3 1 1 1 4 6 6
Wind_Direction
175 166 162 160 158 156 153 150 144 139 136 132 128 124 120 114 108 106 114 121 137 145 138 127 115 104 98 95 94 93 90 86 82 77 70 67 73 85 89 87 78 71 85
151 160 160 160 159 157 154 149 144 140 138 134 130 125 120 117 114 113 115 113 127 134 129 120 110 102 97 97 98 98 95 90 84 78 70 61 62 84 94 93 90 89 89
143 157 158 160 159 158 154 149 145 144 141 137 133 130 128 126 124 119 114 106 109 115 115 108 102 98 97 99 100 98 93 88 86 86 81 64 51 85 98 103 98 94 94
146 154 157 160 160 158 154 152 150 149 146 143 140 137 135 132 131 125 113 103 100 101 101 101 100 99 101 103 101 96 88 81 84 94 91 62 24 69 101 108 103 95 93
145 151 157 160 160 158 157 157 158 156 153 149 145 143 140 137 136 130 119 107 101 101 102 103 104 104 105 104 100 91 82 80 87 96 92 55 5 36 81 83 84 87 83
138 149 159 159 160 160 161 163 164 161 158 153 149 147 144 142 139 133 124 116 111 110 111 111 111 109 107 105 97 87 82 90 96 99 83 27 344 44 78 76 75 73 70
139 147 160 159 161 163 166 169 170 167 162 158 155 153 150 145 141 137 132 128 127 125 122 120 118 114 107 100 93 88 92 104 111 105 76 33 39 79 80 78 75 70 68
144 148 161 162 163 166 171 173 175 171 168 165 162 160 156 151 147 146 144 141 138 133 130 127 122 113 99 90 88 94 106 114 117 104 86 67 75 81 78 74 71 67 64
144 148 160 162 165 169 174 176 180 177 173 170 169 167 163 158 155 155 153 152 148 143 137 131 119 104 90 85 87 102 113 115 112 100 88 82 85 81 78 73 70 66 63
151 156 161 162 165 170 176 180 184 180 176 175 176 173 169 165 164 164 165 165 162 155 145 133 118 99 87 87 94 104 110 108 103 98 92 93 86 82 77 73 70 67 64
174 174 168 165 168 171 176 183 185 183 181 181 181 176 169 169 171 174 176 181 178 165 151 136 120 103 92 91 99 106 107 106 103 97 99 101 93 87 81 77 73 69 65
188 189 184 179 175 174 180 182 183 183 183 182 179 174 171 174 180 181 184 189 182 164 146 133 116 105 104 101 100 106 105 106 101 96 108 106 100 94 87 82 77 73 68
191 194 195 191 185 182 182 179 181 181 181 181 179 178 176 177 181 178 178 183 171 145 121 115 107 109 112 114 112 111 110 106 101 97 108 108 108 102 95 88 81 75 69
199 202 201 198 194 193 189 185 183 182 182 182 184 182 176 172 174 174 174 172 160 149 137 128 121 118 115 117 122 120 116 111 107 103 106 110 112 109 104 95 85 77 69
211 209 207 204 204 199 194 192 192 193 192 191 190 189 184 178 178 178 177 173 168 162 155 144 135 129 121 118 123 127 125 120 116 110 107 111 114 115 110 100 89 78 70
217 216 212 211 209 204 203 201 197 199 199 197 198 196 192 188 184 180 177 177 176 173 167 157 147 138 128 125 120 129 134 132 128 122 117 116 118 120 116 106 93 78 68
216 216 215 215 212 210 209 206 204 201 201 204 205 201 198 194 189 186 184 184 183 174 159 145 134 127 121 119 115 128 138 145 142 135 130 125 124 124 124 117 103 86 68
222 218 217 215 213 213 213 210 208 204 203 208 206 204 202 198 194 190 190 191 181 169 158 148 140 127 130 134 134 132 142 153 157 154 147 142 137 133 130 127 115 95 68
230 225 221 216 213 213 214 212 210 206 206 208 206 207 206 202 197 194 194 189 175 168 163 161 151 141 151 151 141 123 133 158 173 173 173 169 163 157 149 140 123 101 59
236 231 228 223 220 215 212 212 212 211 211 208 209 211 205 203 198 194 191 183 175 170 169 165 151 128 138 146 124 100 86 169 179 188 194 191 193 189 181 165 150 105 36
242 233 230 226 224 216 209 210 213 217 216 213 213 211 206 201 196 193 189 181 180 182 180 168 146 139 135 144 116 96 36 44 190 201 197 194 201 199 191 185 173 150 11
245 236 231 230 229 220 215 212 212 214 217 216 213 210 206 200 195 194 189 188 186 181 176 175 158 147 148 170 146 136 197 291 261 196 197 197 195 182 177 173 162 148 354
264 252 242 232 230 227 222 214 205 201 205 205 210 213 207 200 197 196 193 188 187 186 188 187 180 165 162 188 193 155 162 210 210 248 233 197 185 172 168 160 149 134 99
287 277 260 249 240 235 224 216 210 212 217 216 215 215 207 201 199 198 193 191 189 191 191 191 186 175 155 166 188 185 142 145 156 188 255 240 198 185 178 160 144 132 112
328 319 298 281 263 249 232 221 219 224 226 220 212 210 208 204 201 199 195 193 193 195 194 188 185 183 174 166 163 155 141 94 131 153 191 209 219 207 198 180 166 150 127
346 342 334 316 291 271 251 236 226 227 227 220 212 211 209 204 201 200 196 196 196 194 192 189 186 185 184 169 164 162 159 161 177 164 161 171 196 228 253 217 188 170 151
Height
1514 1516 1519 1521 1524 1527 1530 1532 1534 1536 1537 1538 1539 1540 1541 1541 1541 1541 1541 1541 1541 1542 1543 1545 1546 1547 1547 1548 1548 1549 1550 1551 1552 1552 1552 1553 1553 1553 1552 1552 1552 1552 1552
1514 1516 1519 1522 1524 1527 1530 1533 1535 1536 1537 1539 1539 1540 1541 1541 1540 1540 1541 1542 1542 1543 1544 1546 1547 1548 1548 1548 1548 1549 1550 1551 1552 1552 1553 1553 1553 1553 1553 1553 1553 1553 1553
1514 1516 1519 1522 1525 1528 1531 1533 1535 1536 1538 1539 1539 1540 1540 1540 1540 1541 1542 1543 1544 1545 1546 1547 1548 1549 1549 1549 1549 1550 1551 1551 1552 1553 1554 1554 1554 1554 1554 1554 1554 1554 1554
1515 1517 1519 1523 1526 1528 1531 1533 1535 1536 1538 1539 1539 1540 1540 1540 1540 1541 1542 1544 1545 1546 1547 1548 1550 1550 1550 1550 1551 1552 1552 1553 1554 1555 1555 1555 1555 1555 1555 1555 1555 1555 1555
1515 1518 1520 1523 1526 1529 1531 1533 1535 1536 1538 1539 1540 1540 1540 1541 1541 1542 1543 1544 1545 1547 1549 1550 1551 1551 1552 1552 1553 1553 1554 1555 1555 1556 1556 1556 1556 1556 1557 1557 1556 1556 1556
1516 1518 1521 1524 1527 1529 1531 1533 1535 1536 1538 1539 1540 1541 1541 1542 1542 1543 1544 1545 1547 1548 1550 1551 1552 1552 1553 1553 1554 1555 1556 1556 1557 1557 1557 1557 1557 1557 1557 1557 1557 1557 1557
1516 1519 1522 1525 1527 1529 1531 1533 1535 1537 1538 1539 1540 1541 1542 1542 1543 1544 1545 1546 1548 1549 1551 1552 1553 1553 1554 1554 1555 1556 1557 1557 1558 1558 1558 1558 1558 1558 1558 1558 1558 1558 1558
1517 1520 1522 1525 1527 1530 1531 1533 1535 1537 1538 1539 1541 1542 1543 1543 1544 1545 1546 1547 1549 1550 1551 1552 1553 1554 1555 1555 1556 1557 1557 1558 1558 1559 1559 1559 1559 1559 1559 1558 1558 1558 1558
1518 1520 1522 1525 1527 1530 1532 1533 1535 1536 1538 1539 1541 1542 1543 1544 1545 1546 1547 1548 1550 1551 1552 1553 1554 1555 1555 1556 1556 1557 1558 1558 1559 1559 1559 1559 1559 1559 1559 1558 1558 1558 1557
1518 1520 1522 1525 1527 1529 1531 1533 1535 1536 1537 1539 1541 1542 1543 1545 1546 1547 1548 1549 1550 1552 1553 1554 1554 1555 1556 1556 1557 1557 1558 1559 1559 1559 1559 1559 1559 1558 1558 1557 1557 1556 1556
1517 1519 1521 1524 1526 1528 1530 1532 1534 1535 1537 1538 1540 1541 1543 1544 1546 1547 1548 1550 1551 1552 1553 1554 1554 1555 1556 1556 1557 1557 1558 1558 1558 1558 1558 1558 1557 1557 1556 1556 1555 1554 1554
1515 1517 1520 1523 1525 1527 1529 1531 1532 1534 1535 1537 1539 1540 1542 1544 1545 1547 1548 1549 1550 1552 1553 1553 1554 1555 1555 1556 1556 1557 1557 1557 1557 1557 1557 1557 1556 1555 1555 1554 1553 1553 1552
1514 1516 1519 1521 1523 1525 1527 1529 1531 1532 1534 1535 1537 1539 1541 1542 1544 1546 1547 1548 1549 1550 1552 1553 1553 1554 1555 1555 1556 1556 1556 1556 1556 1556 1556 1555 1555 1554 1553 1552 1552 1552 1551
1514 1516 1518 1520 1521 1523 1525 1527 1528 1530 1532 1533 1535 1537 1538 1540 1542 1544 1545 1547 1548 1549 1551 1552 1553 1553 1554 1554 1555 1555 1555 1554 1554 1554 1554 1554 1554 1553 1552 1551 1551 1551 1550
1512 1514 1516 1518 1519 1521 1522 1524 1525 1527 1529 1531 1533 1534 1536 1538 1539 1542 1543 1545 1546 1548 1549 1550 1551 1552 1553 1553 1553 1553 1553 1553 1553 1553 1553 1552 1552 1551 1551 1550 1550 1550 1550
1510 1512 1514 1515 1516 1518 1519 1521 1522 1525 1526 1529 1530 1531 1533 1535 1537 1539 1541 1542 1544 1545 1547 1548 1549 1550 1551 1551 1552 1552 1551 1551 1551 1551 1551 1551 1550 1550 1550 1549 1549 1549 1549
1508 1509 1511 1512 1513 1514 1516 1518 1519 1521 1523 1525 1526 1528 1529 1531 1533 1535 1537 1539 1541 1542 1544 1545 1546 1547 1548 1549 1549 1549 1549 1549 1549 1549 1549 1549 1549 1549 1548 1548 1548 1547 1547
1504 1505 1507 1508 1509 1510 1512 1513 1515 1517 1518 1520 1522 1524 1525 1527 1529 1531 1533 1535 1537 1539 1541 1542 1543 1544 1545 1546 1547 1547 1547 1547 1547 1547 1547 1547 1547 1547 1546 1546 1546 1545 1545
1499 1500 1501 1503 1504 1505 1506 1508 1510 1511 1513 1515 1517 1519 1520 1522 1524 1526 1528 1531 1533 1535 1537 1538 1540 1541 1542 1543 1544 1544 1544 1544 1544 1544 1544 1545 1545 1545 1544 1544 1544 1543 1543
1493 1494 1495 1496 1498 1499 1501 1502 1503 1505 1507 1509 1511 1513 1515 1517 1518 1521 1523 1526 1528 1530 1532 1534 1536 1538 1539 1540 1541 1541 1541 1541 1541 1541 1542 1542 1542 1542 1542 1542 1541 1541 1540
1485 1486 1488 1489 1491 1492 1493 1494 1495 1497 1499 1501 1503 1506 1509 1511 1513 1515 1517 1520 1522 1524 1526 1529 1531 1533 1535 1536 1537 1538 1538 1538 1538 1538 1538 1539 1539 1539 1539 1539 1538 1538 1537
1477 1478 1480 1481 1483 1485 1486 1487 1488 1490 1491 1494 1496 1499 1502 1504 1506 1508 1511 1513 1516 1518 1521 1523 1526 1528 1530 1532 1533 1534 1534 1535 1533 1534 1534 1535 1535 1535 1535 1535 1535 1534 1533
1470 1471 1473 1475 1476 1478 1479 1481 1481 1482 1483 1485 1487 1490 1493 1496 1499 1502 1504 1506 1509 1512 1514 1516 1519 1522 1524 1526 1528 1529 1529 1528 1529 1529 1530 1531 1531 1531 1531 1531 1530 1530 1529
1465 1465 1466 1468 1470 1471 1473 1473 1474 1474 1474 1476 1479 1482 1485 1488 1491 1494 1497 1499 1502 1504 1506 1509 1512 1514 1517 1519 1521 1523 1524 1524 1525 1524 1526 1526 1526 1527 1527 1526 1526 1525 1524
1462 1462 1462 1463 1464 1465 1466 1466 1466 1467 1468 1470 1472 1474 1476 1479 1482 1486 1489 1491 1494 1496 1499 1501 1504 1507 1509 1512 1514 1516 1517 1519 1519 1520 1520 1521 1522 1522 1522 1522 1521 1521 1520
1460 1459 1459 1459 1459 1459 1459 1460 1460 1460 1461 1462 1464 1465 1468 1470 1473 1476 1480 1483 1486 1488 1491 1493 1496 1500 1502 1505 1508 1509 1511 1512 1513 1514 1515 1515 1516 1517 1517 1517 1517 1516 1515